Location: Bailleul
(50.3375°N, 2.8513°E)
Time: 11:05:50
(UTC+00:00)

Cosmos 2016 Rocket - Pass Details

Date: 27 October 2021
Orbit: 946 x 1000 km, 83.0° (Epoch: 01 December)

Event Time Altitude Azimuth Distance (km) Brightness Sun altitude
Rises 05:06:59 0° 355° (N) 3,631 6.9 -13.9°
Reaches altitude 10° 05:09:51 10° 7° (N) 2,681 6.3 -13.5°
Maximum altitude 05:15:06 29° 66° (ENE) 1,674 6.0 -12.6°
Drops below altitude 10° 05:20:20 10° 125° (SE) 2,677 7.3 -11.8°
Sets 05:23:11 0° 137° (SE) 3,625 7.8 -11.3°
